Weather History for Frenchville, ME

Change the Weather History Date:

Wednesday, February 13, 2013

  Actual Average Record
Temperature  
Mean Temperature 25 °F 12 °F  
Max Temperature 27 °F 21 °F 37 °F (1999)
Min Temperature 22 °F 4 °F -18 °F (2003)
Degree Days  
Heating Degree Days 40    
Month to date heating degree days 749  
Since 1 July heating degree days 5856  
Cooling Degree Days 0    
Month to date cooling degree days 0  
Year to date cooling degree days 0  
Moisture  
Dew Point 20 °F    
Average Humidity 81    
Maximum Humidity 92    
Minimum Humidity 72    
Precipitation  
Precipitation T in 0.03 in 0.22 in (2008)
Month to date precipitation 0.12 0.28  
Year to date precipitation 1.10 2.04  
Snow  
Snow 0.00 in - - ()
Month to date snowfall 0.0  
Snow Depth 0.00 in    
Sea Level Pressure  
Sea Level Pressure 29.67 in    
Wind  
Wind Speed 6 mph (NW)    
Max Wind Speed 14 mph    
Max Gust Speed 18 mph    
Visibility 10 miles    
Events Snow    
T = Trace of Precipitation, MM = Missing Value Source: NWS Daily Summary

Daily Weather History Graph

Daily Weather History Graph

Search for Another Location

Airport:

Trip Planner

Search our weather history database for the weather conditions in past years. The results will help you decide how hot, cold, wet, or windy it might be!

Date:

Astronomy

Feb. 13, 2013 Rise Set
Actual Time 6:41 AM EST 4:54 PM EST
Civil Twilight 6:09 AM EST 5:26 PM EST
Nautical Twilight 5:33 AM EST 6:02 PM EST
Astronomical Twilight 4:58 AM EST 6:37 PM EST
Moon 7:50 AM EST (2/13) 9:14 PM EST (2/13)
Length of Visible Light 11h 16m
Length of Day
10h 13m
Waxing Crescent, 13% of the Moon is Illuminated
Feb 13
Waxing Crescent
Feb 17
First Quarter
Feb 25
Full
Mar 4
Last Quarter
Mar 11
New

Hourly Weather History & Observations

Time (EST) Temp. Windchill Dew Point Humidity Pressure Visibility Wind Dir Wind Speed Gust Speed Precip Events Conditions
12:53 AM 27.0 °F 20.5 °F 21.9 °F 81% 29.62 in 10.0 mi WNW 5.8 mph - N/A   Overcast
1:53 AM 26.1 °F 20.5 °F 23.0 °F 88% 29.62 in 5.0 mi NW 4.6 mph - 0.00 in Snow Light Snow
2:06 AM 26.6 °F 21.2 °F 23.0 °F 86% 29.60 in 7.0 mi WNW 4.6 mph - 0.00 in   Overcast
2:53 AM 26.1 °F 20.5 °F 23.0 °F 88% 29.62 in 10.0 mi NNW 4.6 mph - 0.00 in   Overcast
3:16 AM 26.6 °F 18.2 °F 21.2 °F 80% 29.58 in 10.0 mi NNW 8.1 mph - N/A   Overcast
3:53 AM 25.0 °F 19.3 °F 21.9 °F 88% 29.63 in 10.0 mi NNW 4.6 mph - N/A   Overcast
4:07 AM 24.8 °F 17.9 °F 21.2 °F 86% 29.60 in 10.0 mi NW 5.8 mph - N/A   Overcast
4:36 AM 24.8 °F 14.6 °F 21.2 °F 86% 29.60 in 10.0 mi NNW 10.4 mph - N/A   Overcast
4:49 AM 24.8 °F 15.3 °F 21.2 °F 86% 29.60 in 10.0 mi NW 9.2 mph - N/A   Overcast
4:53 AM 25.0 °F 16.3 °F 21.0 °F 85% 29.64 in 10.0 mi NNW 8.1 mph - N/A   Overcast
5:53 AM 24.1 °F 17.0 °F 19.9 °F 84% 29.65 in 8.0 mi NW 5.8 mph - 0.00 in Snow Light Snow
6:53 AM 23.0 °F 11.1 °F 18.0 °F 81% 29.67 in 7.0 mi NW 12.7 mph - 0.00 in Snow Light Snow
7:53 AM 23.0 °F 11.1 °F 18.0 °F 81% 29.68 in 10.0 mi NW 12.7 mph - 0.00 in   Overcast
8:53 AM 23.0 °F 13.9 °F 19.0 °F 85% 29.69 in 10.0 mi WNW 8.1 mph - N/A   Overcast
9:53 AM 25.0 °F 16.3 °F 19.0 °F 78% 29.69 in 10.0 mi WNW 8.1 mph - N/A   Overcast
10:53 AM 25.0 °F 14.2 °F 19.0 °F 78% 29.70 in 10.0 mi West 11.5 mph - N/A   Overcast
11:53 AM 27.0 °F 18.7 °F 19.0 °F 72% 29.69 in 10.0 mi NW 8.1 mph - N/A   Overcast
12:53 PM 26.1 °F 16.2 °F 19.0 °F 75% 29.68 in 10.0 mi WNW 10.4 mph - N/A   Overcast
1:53 PM 27.0 °F 20.5 °F 19.0 °F 72% 29.68 in 10.0 mi WNW 5.8 mph - N/A   Overcast
2:53 PM 26.1 °F 17.6 °F 19.0 °F 75% 29.69 in 10.0 mi NW 8.1 mph - N/A   Overcast
3:53 PM 26.1 °F 20.5 °F 19.0 °F 75% 29.69 in 10.0 mi NW 4.6 mph - N/A   Overcast
4:21 PM 26.6 °F 21.2 °F 19.4 °F 74% 29.66 in 10.0 mi North 4.6 mph - N/A   Overcast
4:53 PM 25.0 °F - 19.0 °F 78% 29.70 in 10.0 mi Calm Calm - N/A   Overcast
5:15 PM 24.8 °F - 19.4 °F 80% 29.67 in 10.0 mi Calm Calm - N/A   Overcast
5:53 PM 25.0 °F - 19.0 °F 78% 29.72 in 10.0 mi Calm Calm - N/A   Overcast
6:53 PM 25.0 °F - 19.0 °F 78% 29.72 in 10.0 mi Calm Calm - N/A   Overcast
7:53 PM 25.0 °F - 19.0 °F 78% 29.73 in 10.0 mi Calm Calm - N/A   Overcast
8:53 PM 25.0 °F - 19.0 °F 78% 29.73 in 10.0 mi Calm Calm - N/A   Overcast
9:53 PM 24.1 °F 19.7 °F 19.0 °F 81% 29.74 in 10.0 mi North 3.5 mph - N/A   Overcast
10:18 PM 24.8 °F 20.5 °F 19.4 °F 80% 29.70 in 10.0 mi North 3.5 mph - N/A   Overcast
10:46 PM 24.8 °F 19.1 °F 19.4 °F 80% 29.70 in 10.0 mi NNW 4.6 mph - N/A   Overcast
10:53 PM 24.1 °F 19.7 °F 19.0 °F 81% 29.74 in 9.0 mi NNW 3.5 mph - N/A   Overcast
11:53 PM 21.9 °F 17.2 °F 19.9 °F 92% 29.73 in 7.0 mi North 3.5 mph - 0.00 in Snow Light Snow